GFSNE_850_temp_111.txt.gz
Temp
8 9 9 9 8 9 10 11 11 10 10 9 9 9 9 9 10 10 11 11 10 10 10 10 10 10 10 10 10 10 10 10 10 9 9 9 8 8
8 8 8 8 8 8 9 10 11 11 10 10 9 10 10 9 9 9 10 10 10 10 10 10 10 10 10 10 10 9 9 9 9 9 9 8 8 8
8 8 8 8 8 8 8 8 9 10 11 11 9 9 9 9 10 8 9 9 9 9 10 10 10 10 10 10 9 10 9 9 9 8 8 7 7 7
8 8 8 7 7 7 8 8 9 9 9 10 10 9 9 9 9 8 8 8 8 9 9 9 9 9 9 9 9 9 9 9 8 7 7 7 6 6
8 8 8 8 7 7 8 7 8 8 9 10 9 8 9 8 9 8 7 7 8 9 9 9 9 9 8 8 8 8 8 8 7 6 6 6 4 3
7 7 7 7 7 7 7 7 8 8 8 8 7 8 9 8 8 7 7 7 8 8 8 9 8 8 7 7 7 6 7 7 7 3 3 2 0 0
7 7 7 7 7 7 7 6 7 7 6 6 7 8 8 8 8 7 6 6 7 7 8 7 6 6 6 5 5 4 3 2 1 -1 -1 -1 -1 -1
6 6 6 6 6 6 7 6 6 6 6 6 6 7 8 7 7 7 6 6 7 6 6 6 5 4 4 2 0 -1 -1 -2 -2 -2 -2 -2 -2 -2
7 6 6 6 6 6 6 6 6 6 6 6 6 6 7 7 7 6 6 6 6 6 5 4 2 1 -1 -2 -3 -3 -3 -3 -3 -3 -3 -3 -2 -3
7 7 6 6 6 6 6 5 6 6 6 6 6 6 6 6 6 6 6 6 6 4 3 1 -1 -3 -4 -4 -4 -4 -4 -4 -4 -4 -3 -4 -4 -4
7 7 7 7 7 7 6 6 6 6 6 6 6 6 6 6 6 6 5 5 3 1 -1 -2 -4 -5 -5 -5 -5 -5 -4 -7 -5 -5 -5 -5 -6 -6
7 7 7 7 7 7 6 6 6 6 6 6 6 6 5 5 4 3 3 2 1 -1 -3 -4 -5 -5 -5 -6 -6 -7 -6 -5 -5 -5 -6 -6 -7 -7
6 6 6 7 7 7 7 6 6 6 5 3 3 2 1 1 1 0 -1 -1 -3 -3 -4 -5 -5 -5 -6 -7 -7 -7 -7 -8 -7 -8 -9 -9 -8 -8
6 6 6 6 6 6 6 4 4 3 2 1 -0 -1 -2 -3 -3 -4 -4 -4 -4 -4 -5 -5 -5 -6 -7 -8 -9 -8 -9 -9 -9 -9 -9 -8 -8 -9
5 4 4 4 3 3 3 1 0 -0 -2 -2 -3 -3 -4 -4 -5 -5 -5 -5 -5 -6 -6 -7 -7 -7 -7 -8 -9 -9 -10 -10 -10 -10 -10 -10 -10 -11
1 -0 -0 -0 -1 -1 -3 -4 -4 -4 -4 -4 -4 -5 -5 -5 -6 -6 -6 -7 -7 -8 -8 -8 -8 -8 -8 -8 -9 -10 -11 -11 -11 -11 -11 -11 -11 -11
-2 -3 -4 -3 -5 -5 -6 -6 -6 -5 -5 -6 -6 -6 -7 -7 -7 -7 -8 -8 -9 -9 -9 -9 -9 -9 -9 -9 -10 -11 -12 -12 -12 -12 -12 -12 -11 -11
-5 -6 -7 -7 -7 -7 -7 -7 -7 -7 -7 -7 -8 -8 -9 -8 -8 -9 -9 -10 -11 -11 -11 -10 -10 -11 -11 -10 -10 -11 -12 -13 -13 -13 -12 -12 -11 -11
-5 -8 -8 -8 -9 -9 -10 -9 -9 -9 -9 -10 -9 -9 -9 -9 -10 -11 -11 -12 -12 -12 -12 -12 -11 -11 -11 -10 -12 -11 -12 -13 -13 -13 -13 -13 -13 -12
-8 -10 -10 -11 -11 -11 -11 -11 -11 -11 -11 -11 -11 -11 -12 -12 -12 -13 -13 -13 -12 -12 -12 -12 -13 -11 -12 -13 -14 -12 -13 -12 -13 -13 -13 -12 -10 -10
-11 -11 -12 -12 -12 -13 -13 -12 -12 -12 -12 -12 -12 -12 -13 -13 -13 -12 -12 -12 -12 -13 -13 -13 -13 -12 -11 -13 -13 -13 -13 -13 -13 -12 -12 -11 -10 -10
-13 -13 -13 -14 -13 -12 -12 -11 -12 -12 -12 -13 -14 -15 -15 -14 -14 -14 -14 -14 -14 -14 -14 -14 -14 -14 -14 -14 -13 -14 -13 -14 -13 -13 -12 -12 -11 -10
-14 -14 -14 -14 -14 -14 -14 -14 -14 -14 -15 -15 -15 -14 -14 -15 -14 -14 -15 -15 -14 -15 -15 -15 -14 -14 -14 -14 -14 -14 -14 -13 -13 -13 -12 -11 -11 -10

GFSNE_850_temp_114.txt.gz
Temp
9 9 8 8 8 8 8 9 10 10 10 10 10 10 10 10 10 9 9 10 9 9 10 9 9 9 9 9 10 10 10 9 9 9 9 9 8 8
8 8 8 8 8 8 8 9 9 11 10 10 10 10 10 9 9 9 9 9 9 10 10 9 10 10 10 10 10 9 9 9 9 9 8 8 8 8
8 8 8 8 8 8 8 8 9 10 10 10 10 10 10 10 9 9 8 8 9 9 9 9 9 9 9 9 9 9 9 8 8 8 8 8 8 8
8 8 8 8 8 8 8 8 8 9 10 10 10 9 9 9 8 8 9 9 10 8 8 8 8 9 9 9 9 8 8 8 8 7 8 7 6 5
8 8 8 8 8 8 8 8 8 8 10 9 9 8 8 8 8 8 8 8 9 9 8 8 8 9 9 9 8 9 8 7 7 7 6 5 4 3
8 8 8 8 8 8 8 7 7 7 7 8 9 8 8 8 7 7 7 8 7 9 7 7 8 8 8 8 7 8 7 6 6 5 2 1 0 0
8 8 8 8 8 8 8 7 7 7 7 7 7 7 7 8 8 7 7 7 7 7 7 7 7 6 6 6 6 6 6 6 5 2 -0 -1 -1 -2
7 7 7 7 7 7 7 7 7 7 7 7 7 7 7 7 7 7 7 6 6 6 6 6 5 6 5 4 4 3 2 -0 -1 -1 -2 -2 -2 -3
7 7 7 7 7 7 7 7 6 6 6 6 6 6 6 6 6 6 6 6 6 6 6 5 4 2 2 1 -2 -3 -3 -3 -3 -3 -3 -3 -5 -4
7 7 7 6 6 6 6 6 5 5 5 5 6 6 6 6 6 6 6 6 6 6 4 3 0 -1 -2 -3 -4 -4 -4 -4 -4 -4 -7 -5 -4 -5
7 7 7 7 6 6 6 6 6 6 5 5 6 6 6 6 6 6 5 5 4 3 1 0 -1 -2 -4 -5 -4 -4 -5 -4 -6 -8 -6 -5 -5 -5
7 6 7 7 7 6 6 6 6 6 6 6 6 5 5 5 5 5 4 3 2 1 -0 -2 -3 -4 -5 -5 -5 -6 -6 -7 -6 -5 -5 -6 -6 -6
7 7 7 7 6 6 6 6 6 6 5 5 4 3 2 2 2 2 1 1 0 -1 -2 -3 -4 -5 -5 -6 -6 -8 -7 -7 -7 -7 -8 -8 -8 -8
6 6 6 6 6 6 6 5 5 4 3 2 1 0 -0 -1 -1 -1 -1 -2 -2 -2 -3 -4 -4 -5 -6 -7 -8 -8 -8 -8 -8 -9 -8 -8 -9 -9
5 5 5 4 4 4 4 3 3 1 0 -1 -1 -2 -3 -3 -3 -3 -4 -4 -4 -5 -5 -5 -6 -6 -6 -7 -8 -9 -9 -9 -10 -9 -9 -9 -9 -10
1 -0 1 1 1 1 -1 -2 -2 -2 -3 -3 -3 -4 -4 -4 -5 -5 -5 -5 -5 -5 -6 -7 -7 -7 -7 -7 -8 -10 -10 -10 -9 -9 -9 -10 -10 -11
-2 -2 -3 -2 -3 -4 -4 -4 -5 -5 -4 -4 -5 -5 -5 -6 -6 -6 -6 -7 -7 -7 -8 -8 -8 -8 -8 -8 -9 -10 -9 -9 -9 -9 -10 -11 -11 -11
-3 -4 -6 -6 -6 -6 -6 -6 -6 -6 -6 -6 -6 -6 -7 -7 -7 -8 -9 -9 -9 -9 -9 -9 -9 -9 -9 -10 -10 -10 -10 -10 -10 -10 -11 -11 -11 -11
-5 -7 -8 -8 -8 -7 -7 -6 -7 -7 -8 -8 -8 -8 -8 -9 -9 -9 -10 -10 -11 -11 -11 -10 -9 -9 -10 -11 -10 -10 -10 -10 -10 -10 -11 -10 -10 -10
-8 -9 -9 -9 -9 -9 -9 -9 -9 -9 -9 -9 -9 -9 -10 -10 -11 -11 -11 -12 -12 -12 -12 -12 -10 -11 -11 -11 -11 -11 -12 -12 -11 -11 -11 -10 -10 -9
-9 -9 -10 -10 -9 -9 -8 -8 -8 -9 -9 -9 -9 -10 -11 -11 -11 -11 -11 -12 -12 -12 -13 -13 -11 -11 -12 -12 -13 -13 -12 -13 -13 -12 -12 -11 -10 -10
-11 -10 -11 -10 -10 -10 -10 -10 -10 -10 -10 -11 -11 -12 -12 -12 -12 -12 -12 -13 -12 -13 -14 -13 -14 -14 -14 -14 -14 -13 -14 -13 -13 -13 -13 -12 -12 -11
-12 -11 -12 -12 -12 -11 -12 -12 -12 -11 -12 -12 -12 -12 -12 -12 -12 -12 -13 -13 -13 -13 -13 -13 -14 -14 -14 -14 -14 -14 -14 -13 -13 -13 -12 -11 -11 -11

GFSNE_850_temp_117.txt.gz
Temp
9 9 9 9 8 9 9 9 9 8 8 8 9 10 9 9 10 9 9 9 9 9 9 9 9 9 9 9 9 9 9 9 9 9 9 8 9 8
10 9 9 9 8 8 8 9 8 8 9 9 9 10 10 10 10 9 9 9 9 9 9 9 9 9 9 9 9 9 9 9 9 9 8 8 8 8
9 9 9 8 8 8 8 8 8 8 8 9 10 10 10 10 9 9 9 9 9 9 9 9 8 9 9 9 8 9 9 9 8 8 8 8 7 7
9 8 8 8 8 8 8 8 8 7 8 8 9 9 9 9 9 9 8 9 9 9 9 8 8 8 7 8 8 8 8 8 8 8 8 8 6 6
9 8 8 8 8 8 8 8 8 8 7 8 8 9 9 9 8 8 9 8 8 8 8 8 8 8 8 7 7 8 7 7 7 7 6 6 5 3
9 9 8 8 8 8 8 8 8 8 8 8 7 8 8 8 8 8 7 7 7 7 7 7 7 7 7 7 7 7 7 6 6 5 5 4 3 0
8 8 8 8 8 8 8 8 7 7 7 7 7 7 7 7 7 7 7 6 7 7 7 6 6 6 7 7 6 6 6 4 4 1 0 -0 -1 -1
8 8 8 8 8 8 8 8 8 8 7 7 7 7 7 7 7 7 6 6 6 6 6 6 5 6 6 5 5 3 1 -1 -2 -2 -2 -2 -2 -2
8 7 7 7 7 7 8 8 7 7 7 7 7 7 7 7 7 6 6 6 6 6 6 5 5 4 3 1 -1 -2 -3 -2 -2 -2 -3 -3 -4 -5
7 7 7 7 7 7 7 7 7 7 6 6 6 7 7 6 6 6 6 6 6 6 5 4 3 2 -1 -2 -3 -4 -4 -4 -3 -4 -4 -5 -6 -6
7 7 7 6 6 6 6 6 6 6 6 6 6 6 6 6 6 6 6 6 5 4 4 2 0 -1 -3 -4 -5 -5 -5 -5 -5 -5 -6 -6 -5 -6
7 7 7 7 6 6 6 6 6 6 6 6 6 6 5 5 5 5 5 4 4 2 2 0 -1 -3 -5 -5 -6 -6 -6 -5 -7 -7 -5 -6 -6 -6
6 6 6 6 6 6 6 6 6 6 6 5 5 5 5 4 4 3 3 2 2 1 1 -1 -2 -3 -4 -6 -7 -6 -6 -7 -7 -7 -7 -7 -7 -7
6 7 7 7 6 6 6 6 6 6 5 4 3 2 2 1 1 1 0 -0 -0 -1 -1 -3 -3 -4 -4 -6 -6 -8 -8 -8 -7 -7 -7 -8 -8 -8
6 6 6 6 6 6 5 5 5 4 3 2 1 0 -1 -1 -1 -1 -2 -2 -2 -3 -4 -4 -5 -5 -5 -5 -6 -8 -9 -9 -8 -8 -8 -9 -9 -9
4 3 3 4 3 3 2 1 0 -1 -1 -1 -1 -2 -3 -3 -4 -4 -4 -4 -4 -4 -5 -6 -6 -6 -6 -7 -8 -8 -9 -9 -8 -9 -8 -9 -10 -10
0 0 0 -1 0 -2 -2 -3 -3 -3 -3 -3 -3 -4 -5 -5 -5 -6 -5 -5 -5 -6 -6 -7 -7 -8 -8 -8 -8 -9 -9 -9 -9 -9 -9 -9 -10 -11
-2 -1 -3 -4 -4 -5 -5 -5 -5 -5 -5 -5 -5 -5 -5 -6 -6 -6 -6 -6 -6 -7 -7 -7 -8 -8 -9 -9 -9 -10 -10 -10 -10 -9 -10 -9 -10 -11
-3 -4 -5 -5 -6 -6 -6 -6 -6 -6 -6 -6 -6 -6 -7 -7 -7 -7 -8 -8 -8 -8 -8 -9 -9 -9 -9 -10 -10 -10 -10 -10 -10 -10 -10 -10 -9 -10
-6 -6 -6 -7 -7 -7 -7 -6 -7 -7 -7 -7 -7 -7 -7 -7 -8 -9 -9 -10 -10 -11 -10 -10 -10 -10 -10 -10 -11 -11 -11 -11 -11 -11 -11 -11 -10 -9
-7 -7 -7 -7 -7 -7 -8 -8 -8 -8 -8 -8 -8 -8 -9 -9 -9 -10 -11 -11 -11 -11 -11 -11 -11 -11 -11 -11 -12 -12 -12 -12 -13 -12 -12 -11 -11 -10
-8 -8 -9 -9 -9 -9 -9 -9 -8 -8 -9 -9 -9 -10 -10 -10 -10 -10 -10 -11 -12 -12 -12 -12 -12 -13 -13 -14 -14 -14 -13 -12 -13 -13 -13 -13 -13 -12
-9 -8 -9 -9 -9 -9 -9 -10 -10 -10 -10 -10 -10 -10 -10 -10 -11 -11 -11 -12 -12 -12 -12 -13 -13 -13 -14 -14 -14 -14 -14 -14 -13 -13 -12 -13 -12 -12

GFSNE_850_temp_123.txt.gz
Temp
11 11 10 10 10 9 9 9 9 9 9 9 9 9 9 8 9 9 9 9 9 9 9 9 9 8 8 8 8 8 8 8 8 7 8 8 8 8
11 10 9 10 10 10 9 9 9 9 9 9 9 9 8 8 9 9 9 9 9 9 9 9 8 8 8 8 8 8 8 8 9 9 9 9 8 7
11 10 10 10 9 9 9 9 9 9 9 8 8 8 8 8 8 8 9 9 9 9 9 8 8 8 8 8 8 8 8 8 8 8 8 8 7 7
11 10 10 9 9 9 9 9 9 8 9 8 9 8 8 8 8 8 8 8 9 9 9 8 8 8 8 8 8 8 8 7 9 8 7 7 7 7
10 10 10 10 9 9 9 9 9 9 8 8 8 8 8 8 8 8 8 9 9 9 9 8 8 8 8 8 7 7 7 7 7 7 7 6 6 6
10 10 9 9 9 9 9 8 8 8 8 8 8 8 8 8 8 8 8 8 8 8 8 8 8 8 8 7 7 8 6 7 6 6 5 5 4 4
9 10 9 9 9 9 8 8 8 8 8 8 8 8 7 7 7 7 7 7 7 7 7 7 7 7 7 7 7 7 6 6 5 5 4 2 2 1
10 9 8 9 9 9 8 8 8 8 8 8 8 8 8 7 7 7 7 7 7 7 6 6 6 6 6 6 6 6 5 5 4 4 2 1 -1 -1
9 9 9 9 9 8 8 8 8 8 8 8 8 8 8 8 8 7 7 7 7 7 6 6 6 6 6 5 4 4 3 2 2 1 -1 -1 -2 -2
9 9 9 8 8 8 8 8 8 8 8 8 8 8 7 7 7 7 7 7 6 6 6 5 6 5 4 3 2 1 -0 -1 -2 -2 -2 -3 -3 -3
8 8 8 8 8 8 8 8 8 8 7 7 7 7 7 7 7 6 7 6 6 6 6 6 5 4 2 -0 -0 -2 -3 -3 -4 -3 -4 -4 -4 -4
8 8 8 8 7 7 7 7 7 7 7 7 7 7 7 7 7 7 7 6 6 6 6 5 4 2 -2 -3 -3 -4 -4 -4 -4 -4 -4 -4 -5 -5
7 7 7 7 7 7 7 7 7 7 7 7 7 6 6 6 6 6 6 5 5 5 5 4 3 1 -1 -3 -5 -5 -5 -5 -6 -5 -6 -6 -6 -6
6 6 7 7 7 6 6 6 6 6 6 6 6 6 6 5 5 5 5 4 4 4 3 2 1 0 -1 -3 -4 -6 -6 -6 -6 -6 -7 -7 -7 -7
7 7 7 7 6 6 6 6 6 6 6 5 5 5 4 4 4 3 3 2 2 2 1 0 -1 -1 -3 -3 -3 -5 -6 -7 -7 -7 -8 -7 -7 -7
6 6 6 6 6 6 6 6 5 4 4 4 4 3 2 1 1 0 0 0 -0 -1 -1 -2 -2 -3 -4 -4 -5 -5 -7 -7 -8 -8 -8 -7 -7 -8
6 6 6 5 5 4 4 4 3 2 1 1 0 -0 -1 -1 -2 -2 -2 -2 -2 -3 -4 -4 -5 -5 -6 -6 -6 -7 -8 -8 -8 -8 -8 -8 -8 -8
2 2 2 2 1 1 -1 -1 -1 -1 -1 -1 -2 -2 -3 -3 -3 -4 -4 -4 -3 -5 -5 -5 -5 -6 -6 -7 -8 -8 -8 -9 -8 -8 -8 -8 -8 -9
0 -1 -1 -2 -2 -3 -2 -3 -3 -3 -3 -3 -3 -3 -3 -4 -5 -5 -5 -5 -5 -6 -6 -7 -7 -7 -7 -7 -9 -9 -9 -9 -9 -9 -9 -9 -8 -9
-3 -4 -4 -4 -4 -4 -4 -4 -4 -5 -5 -5 -5 -5 -6 -5 -6 -6 -6 -6 -6 -7 -8 -8 -8 -8 -8 -9 -9 -10 -11 -10 -10 -10 -10 -10 -10 -9
-6 -6 -6 -5 -5 -5 -6 -6 -7 -6 -6 -6 -7 -7 -7 -7 -7 -7 -8 -8 -8 -8 -8 -9 -9 -9 -9 -9 -10 -11 -11 -12 -11 -11 -11 -11 -10 -10
-7 -6 -7 -8 -7 -7 -7 -8 -8 -8 -8 -8 -8 -8 -9 -9 -8 -9 -9 -9 -10 -10 -10 -10 -10 -10 -10 -11 -11 -11 -12 -12 -12 -13 -13 -14 -13 -12
-8 -8 -8 -8 -9 -9 -9 -9 -9 -9 -9 -9 -9 -10 -10 -10 -10 -10 -10 -11 -10 -10 -11 -11 -11 -11 -12 -12 -12 -13 -13 -12 -12 -12 -12 -13 -13 -13